Weather Roundup
Issued by NWS Chicago, IL

Home | Current Version | Previous Version | Text Only | Print | Product List | Glossary Off
Versions: 1 2 3 4 5 6 7 8 9 10 11 12 13 14 15 16 17 18 19 20 21 22 23 24 25 26 27 28 29 30 31 32 33 34 35 36 37 38 39 40 41 42 43 44 45 46 47 48 49 50

000
NZUS59 KLOT 281508
HRRLOT

CHICAGO AREA WEATHER ROUNDUP
NATIONAL WEATHER SERVICE CHICAGO/ROMEOVILLE IL
1000 AM CDT THU JUL 28 2016

NOTE: "FAIR" INDICATES FEW OR NO CLOUDS BELOW 12,000 FEET WITH NO
SIGNIFICANT WEATHER AND/OR OBSTRUCTIONS TO VISIBILITY.

* THESE STATIONS ARE NOT UNDER NWS QUALITY CONTROL. THEY ALSO MAY NOT
  REPORT WEATHER SUCH AS PRECIPITATION OR FOG.

ILZ005-006-012>014-019>023-281600-
NORTHEAST ILLINOIS

CITY           SKY/WX    TMP DP  RH WIND       PRES   REMARKS
OHARE          CLOUDY    81  70  69 NE8       29.90  HX  84
MIDWAY         MOSUNNY   83  70  64 SE8       29.90  HX  87
AURORA         SUNNY     83  71  67 SE5       29.91  HX  87
LANSING*       CLOUDY    80  67  65 CALM      29.91S HX  82
JOLIET*        MOSUNNY   82  73  72 S5        29.91S HX  87
WAUKEGAN       PTSUNNY   77  71  82 E7        29.91F
DUPAGE AIRPORT SUNNY     82  69  64 CALM      29.90  HX  85
WHEELING       PTSUNNY   77  71  82 E7        29.92
KANKAKEE*      CLOUDY    78  69  75 SE3       29.92S HX  80
MORRIS*        SUNNY     81  73  76 S3        29.90F HX  85
LEWIS AIRPORT* MOSUNNY   81  68  65 S6        29.90F HX  83
NORTHERLY ISL    N/A     78  71  79 E3          N/A  HX  80
$$

WIZ051-052-058>065-066-070>072-281600-
SOUTHEAST WISCONSIN

CITY           SKY/WX    TMP DP  RH WIND       PRES   REMARKS
MILWAUKEE      PTSUNNY   74  68  81 N9        29.93
KENOSHA*       PTSUNNY   78  69  73 E9        29.92  HX  80
RACINE*        SUNNY     75  68  78 NE5       29.94F
BURLINGTON     PTSUNNY   76  67  75 E6        29.93S
WAUKESHA       CLOUDY    72  66  83 NE12      29.95
$$

INZ001>003-010>013-019-020-281600-
NORTHWEST INDIANA

CITY           SKY/WX    TMP DP  RH WIND       PRES   REMARKS
GARY*          PTSUNNY   81  72  74 CALM      29.91  HX  84
MICHIGAN CITY* NOT AVBL
RENSSELAER*    NOT AVBL
VALPARAISO     CLOUDY    80  69  69 E6        29.92  HX  83
$$

LMZ740>746-281600-
SOUTHERN LAKE MICHIGAN

STATION/POSITION TIME  SKY/WX   TEMP WIND        PRES    VSBY
                                AIR  DIR/SP/G
                 (UTC)          (F)  (DEG/KT/KT) (MB)    (MI)
HARRISON CRIB    1400            76   90/  8/  9   N/A
BURNHAM HARBOR   1500            77  100/  2/  4   N/A
CALUMET HARBOR   1400            76   50/  3/  4 1012.5F
BURNS HARBOR     1400            77   70/  5/  6 1013.5
MICHIGAN CITY    1400            76   10/  5/  5   N/A
$$

ABBREVIATIONS USED IN REMARKS
   TC - TEMPERATURE IN CELSIUS
  WCI - WIND CHILL INDEX
   HX - HEAT INDEX
  VSB - VISIBILITY
$$




USA.gov is the U.S. government's official web portal to all federal, state and local government web resources and services.